User: anonymous   Login
Location: Unspecified
(0.0000°N, 0.0000°E)
Time: 19:12:18
(UTC+00:00)
Language:

ICEYE-X2 - Orbit

View from above orbital plane
View from above orbital plane
View from above satellite
View from above satellite

Ground track
Ground track

The orbit data is extracted from the following two-line orbital elements,

1 43761U 18099D   21019.92047325 -.00000579  00000-0 -47388-4 0  9990
2 43761  97.6853  93.6816 0014319 181.4317 178.6864 14.95221139116271
Epoch (UTC): 19 January 2021 22:05:28
Eccentricity: 0.0014319
inclination: 97.6853°
perigee height: 572 km
apogee height: 591 km
right ascension of ascending node: 93.6816°
argument of perigee: 181.4317°
revolutions per day: 14.95221139
mean anomaly at epoch: 178.6864°
orbit number at epoch: 11627

The dashed part of the orbit path shows where the satellite is in the earth's shadow,  

DLR